Time,TemperatureF,DewpointF,PressureIn,WindDirection,WindDirectionDegrees,WindSpeedMPH,WindSpeedGustMPH,Humidity,HourlyPrecipIn,Conditions,Clouds,dailyrainin,SoftwareType,DateUTC
2013-02-26 00:00:00,25.3,23.8,30.03,SE,128,3.0,3.0,94,0.00,,,0.00,WeatherCatV1.10B1784,2013-02-26 06:00:00,
2013-02-26 00:05:00,25.3,23.8,30.02,SE,127,1.0,1.0,94,0.00,,,0.00,WeatherCatV1.10B1784,2013-02-26 06:05:00,
2013-02-26 00:10:00,25.3,23.8,30.02,SE,127,0.0,1.0,94,0.00,,,0.00,WeatherCatV1.10B1784,2013-02-26 06:10:00,
2013-02-26 00:15:00,25.3,23.8,30.02,East,89,2.0,5.0,94,0.00,,,0.00,WeatherCatV1.10B1784,2013-02-26 06:15:00,
2013-02-26 00:20:00,25.3,23.8,30.02,East,89,0.0,1.0,94,0.00,,,0.00,WeatherCatV1.10B1784,2013-02-26 06:20:00,
2013-02-26 00:25:00,25.3,23.8,30.02,East,85,2.0,3.0,94,0.00,,,0.00,WeatherCatV1.10B1784,2013-02-26 06:25:00,
2013-02-26 00:30:00,25.3,23.8,30.02,East,93,0.0,4.0,94,0.00,,,0.00,WeatherCatV1.10B1784,2013-02-26 06:30:00,
2013-02-26 00:35:00,25.3,23.8,30.02,ENE,74,0.0,2.0,94,0.00,,,0.00,WeatherCatV1.10B1784,2013-02-26 06:35:00,
2013-02-26 00:40:00,25.2,23.7,30.02,East,95,0.0,0.0,94,0.00,,,0.00,WeatherCatV1.10B1784,2013-02-26 06:40:00,
2013-02-26 00:45:00,25.1,23.6,30.02,East,95,0.0,1.0,94,0.00,,,0.00,WeatherCatV1.10B1784,2013-02-26 06:45:00,
2013-02-26 00:50:00,25.1,23.6,30.02,SE,131,0.0,1.0,94,0.00,,,0.00,WeatherCatV1.10B1784,2013-02-26 06:50:00,
2013-02-26 00:55:00,25.0,23.5,30.03,SE,126,0.0,1.0,94,0.00,,,0.00,WeatherCatV1.10B1784,2013-02-26 06:55:00,
2013-02-26 01:00:00,24.9,23.2,30.03,East,100,1.0,3.0,93,0.00,,,0.00,WeatherCatV1.10B1784,2013-02-26 07:00:00,
2013-02-26 01:05:00,24.9,23.2,30.03,East,100,0.0,2.0,93,0.00,,,0.00,WeatherCatV1.10B1784,2013-02-26 07:05:00,
2013-02-26 01:10:00,24.9,23.2,30.03,East,92,1.0,2.0,93,0.00,,,0.00,WeatherCatV1.10B1784,2013-02-26 07:10:00,
2013-02-26 01:15:00,24.9,23.4,30.04,East,93,2.0,2.0,94,0.00,,,0.00,WeatherCatV1.10B1784,2013-02-26 07:15:00,
2013-02-26 01:20:00,25.0,23.3,30.05,SE,141,0.0,6.0,93,0.00,,,0.00,WeatherCatV1.10B1784,2013-02-26 07:20:00,
2013-02-26 01:25:00,24.9,23.2,30.05,ESE,115,2.0,3.0,93,0.00,,,0.00,WeatherCatV1.10B1784,2013-02-26 07:25:00,
2013-02-26 01:30:00,24.9,23.2,30.05,ESE,117,1.0,3.0,93,0.00,,,0.00,WeatherCatV1.10B1784,2013-02-26 07:30:00,
2013-02-26 01:35:00,24.8,23.1,30.05,ESE,117,0.0,1.0,93,0.00,,,0.00,WeatherCatV1.10B1784,2013-02-26 07:35:00,
2013-02-26 01:40:00,24.7,23.0,30.04,ESE,117,1.0,3.0,93,0.00,,,0.00,WeatherCatV1.10B1784,2013-02-26 07:40:00,
2013-02-26 01:45:00,24.5,22.5,30.03,ESE,117,0.0,3.0,92,0.00,,,0.00,WeatherCatV1.10B1784,2013-02-26 07:45:00,
2013-02-26 01:50:00,24.4,22.4,30.03,ESE,116,2.0,2.0,92,0.00,,,0.00,WeatherCatV1.10B1784,2013-02-26 07:50:00,
2013-02-26 01:55:00,24.2,22.2,30.03,East,98,0.0,2.0,92,0.00,,,0.00,WeatherCatV1.10B1784,2013-02-26 07:55:00,
2013-02-26 02:00:00,24.0,22.0,30.03,East,97,0.0,2.0,92,0.00,,,0.00,WeatherCatV1.10B1784,2013-02-26 08:00:00,
2013-02-26 02:05:00,23.8,21.6,30.02,East,92,1.0,3.0,91,0.00,,,0.00,WeatherCatV1.10B1784,2013-02-26 08:05:00,
2013-02-26 02:10:00,23.5,21.3,30.03,ESE,118,0.0,7.0,91,0.00,,,0.00,WeatherCatV1.10B1784,2013-02-26 08:10:00,
2013-02-26 02:15:00,23.3,21.1,30.02,ESE,118,0.0,1.0,91,0.00,,,0.00,WeatherCatV1.10B1784,2013-02-26 08:15:00,
2013-02-26 02:20:00,23.2,21.0,30.02,ESE,118,0.0,1.0,91,0.00,,,0.00,WeatherCatV1.10B1784,2013-02-26 08:20:00,
2013-02-26 02:25:00,23.1,20.9,30.02,ESE,118,0.0,2.0,91,0.00,,,0.00,WeatherCatV1.10B1784,2013-02-26 08:25:00,
2013-02-26 02:30:00,23.0,20.8,30.01,East,94,1.0,5.0,91,0.00,,,0.00,WeatherCatV1.10B1784,2013-02-26 08:30:00,
2013-02-26 02:35:00,22.9,20.7,30.02,East,93,0.0,3.0,91,0.00,,,0.00,WeatherCatV1.10B1784,2013-02-26 08:35:00,
2013-02-26 02:40:00,22.7,20.5,30.01,East,93,0.0,1.0,91,0.00,,,0.00,WeatherCatV1.10B1784,2013-02-26 08:40:00,
2013-02-26 02:45:00,22.7,20.5,30.02,East,93,0.0,2.0,91,0.00,,,0.00,WeatherCatV1.10B1784,2013-02-26 08:45:00,
2013-02-26 02:50:00,22.6,20.4,30.02,East,86,1.0,5.0,91,0.00,,,0.00,WeatherCatV1.10B1784,2013-02-26 08:50:00,
2013-02-26 02:55:00,22.4,20.2,30.02,East,99,0.0,0.0,91,0.00,,,0.00,WeatherCatV1.10B1784,2013-02-26 08:55:00,
2013-02-26 03:00:00,22.3,20.1,30.02,East,99,1.0,2.0,91,0.00,,,0.00,WeatherCatV1.10B1784,2013-02-26 09:00:00,
2013-02-26 03:05:00,22.2,20.0,30.02,East,97,0.0,1.0,91,0.00,,,0.00,WeatherCatV1.10B1784,2013-02-26 09:05:00,
2013-02-26 03:10:00,21.9,19.7,30.02,ESE,110,2.0,3.0,91,0.00,,,0.00,WeatherCatV1.10B1784,2013-02-26 09:10:00,
2013-02-26 03:15:00,21.5,19.3,30.02,ESE,113,2.0,2.0,91,0.00,,,0.00,WeatherCatV1.10B1784,2013-02-26 09:15:00,
2013-02-26 03:20:00,21.2,19.0,30.02,East,92,0.0,1.0,91,0.00,,,0.00,WeatherCatV1.10B1784,2013-02-26 09:20:00,
2013-02-26 03:25:00,20.9,18.7,30.02,East,92,0.0,3.0,91,0.00,,,0.00,WeatherCatV1.10B1784,2013-02-26 09:25:00,
2013-02-26 03:30:00,20.7,18.5,30.02,East,92,1.0,1.0,91,0.00,,,0.00,WeatherCatV1.10B1784,2013-02-26 09:30:00,
2013-02-26 03:35:00,20.5,18.3,30.02,East,92,1.0,1.0,91,0.00,,,0.00,WeatherCatV1.10B1784,2013-02-26 09:35:00,
2013-02-26 03:40:00,20.4,18.2,30.02,East,92,1.0,1.0,91,0.00,,,0.00,WeatherCatV1.10B1784,2013-02-26 09:40:00,
2013-02-26 03:45:00,20.3,18.4,30.02,East,92,1.0,2.0,92,0.00,,,0.00,WeatherCatV1.10B1784,2013-02-26 09:45:00,
2013-02-26 03:50:00,20.2,18.3,30.02,East,92,0.0,1.0,92,0.00,,,0.00,WeatherCatV1.10B1784,2013-02-26 09:50:00,
2013-02-26 03:55:00,20.1,18.2,30.02,East,92,0.0,1.0,92,0.00,,,0.00,WeatherCatV1.10B1784,2013-02-26 09:55:00,
2013-02-26 04:00:00,20.0,18.1,30.02,East,89,0.0,2.0,92,0.00,,,0.00,WeatherCatV1.10B1784,2013-02-26 10:00:00,
2013-02-26 04:05:00,19.8,17.9,30.01,East,89,0.0,2.0,92,0.00,,,0.00,WeatherCatV1.10B1784,2013-02-26 10:05:00,
2013-02-26 04:10:00,19.7,17.8,30.01,East,89,1.0,2.0,92,0.00,,,0.00,WeatherCatV1.10B1784,2013-02-26 10:10:00,
2013-02-26 04:15:00,19.5,17.6,30.00,ESE,102,0.0,3.0,92,0.00,,,0.00,WeatherCatV1.10B1784,2013-02-26 10:15:00,
2013-02-26 04:20:00,19.4,17.5,30.00,East,101,0.0,2.0,92,0.00,,,0.00,WeatherCatV1.10B1784,2013-02-26 10:20:00,
2013-02-26 04:25:00,19.4,17.7,30.00,East,99,0.0,1.0,93,0.00,,,0.00,WeatherCatV1.10B1784,2013-02-26 10:25:00,
2013-02-26 04:30:00,19.3,17.6,30.00,East,93,0.0,3.0,93,0.00,,,0.00,WeatherCatV1.10B1784,2013-02-26 10:30:00,
2013-02-26 04:35:00,19.2,17.5,30.00,East,92,0.0,0.0,93,0.00,,,0.00,WeatherCatV1.10B1784,2013-02-26 10:35:00,
2013-02-26 04:40:00,19.1,17.2,30.00,East,91,2.0,5.0,92,0.00,,,0.00,WeatherCatV1.10B1784,2013-02-26 10:40:00,
2013-02-26 04:45:00,18.9,17.2,29.99,SE,128,0.0,4.0,93,0.00,,,0.00,WeatherCatV1.10B1784,2013-02-26 10:45:00,
2013-02-26 04:50:00,18.8,17.1,29.98,NNE,26,0.0,2.0,93,0.00,,,0.00,WeatherCatV1.10B1784,2013-02-26 10:50:00,
2013-02-26 04:55:00,18.7,17.0,29.98,NE,54,0.0,0.0,93,0.00,,,0.00,WeatherCatV1.10B1784,2013-02-26 10:55:00,
2013-02-26 05:00:00,18.7,17.0,29.98,North,355,0.0,2.0,93,0.00,,,0.00,WeatherCatV1.10B1784,2013-02-26 11:00:00,
2013-02-26 05:05:00,18.8,17.1,29.99,ENE,70,0.0,0.0,93,0.00,,,0.00,WeatherCatV1.10B1784,2013-02-26 11:05:00,
2013-02-26 05:10:00,18.8,17.4,29.98,NNW,330,4.0,5.0,94,0.00,,,0.00,WeatherCatV1.10B1784,2013-02-26 11:10:00,
2013-02-26 05:15:00,18.7,17.0,29.99,NNW,335,0.0,2.0,93,0.00,,,0.00,WeatherCatV1.10B1784,2013-02-26 11:15:00,
2013-02-26 05:20:00,18.5,16.8,29.99,NNW,335,1.0,2.0,93,0.00,,,0.00,WeatherCatV1.10B1784,2013-02-26 11:20:00,
2013-02-26 05:25:00,18.3,16.6,29.99,ENE,61,0.0,1.0,93,0.00,,,0.00,WeatherCatV1.10B1784,2013-02-26 11:25:00,
2013-02-26 05:30:00,18.1,16.4,29.99,ENE,78,1.0,4.0,93,0.00,,,0.00,WeatherCatV1.10B1784,2013-02-26 11:30:00,
2013-02-26 05:35:00,17.9,16.2,29.99,ENE,78,1.0,1.0,93,0.00,,,0.00,WeatherCatV1.10B1784,2013-02-26 11:35:00,
2013-02-26 05:40:00,17.7,16.0,29.99,NE,54,0.0,4.0,93,0.00,,,0.00,WeatherCatV1.10B1784,2013-02-26 11:40:00,
2013-02-26 05:45:00,17.5,15.8,29.99,East,87,1.0,2.0,93,0.00,,,0.00,WeatherCatV1.10B1784,2013-02-26 11:45:00,
2013-02-26 05:50:00,17.4,15.7,29.99,East,87,0.0,1.0,93,0.00,,,0.00,WeatherCatV1.10B1784,2013-02-26 11:50:00,
2013-02-26 05:55:00,17.3,15.6,29.99,East,87,1.0,1.0,93,0.00,,,0.00,WeatherCatV1.10B1784,2013-02-26 11:55:00,
2013-02-26 06:00:00,17.3,15.6,29.98,East,87,0.0,2.0,93,0.00,,,0.00,WeatherCatV1.10B1784,2013-02-26 12:00:00,
2013-02-26 06:05:00,17.3,15.6,29.98,NNW,337,1.0,6.0,93,0.00,,,0.00,WeatherCatV1.10B1784,2013-02-26 12:05:00,
2013-02-26 06:10:00,17.2,15.8,29.98,NNW,347,0.0,2.0,94,0.00,,,0.00,WeatherCatV1.10B1784,2013-02-26 12:10:00,
2013-02-26 06:15:00,17.2,15.8,29.98,East,89,1.0,5.0,94,0.00,,,0.00,WeatherCatV1.10B1784,2013-02-26 12:15:00,
2013-02-26 06:20:00,17.2,15.5,29.98,East,88,1.0,2.0,93,0.00,,,0.00,WeatherCatV1.10B1784,2013-02-26 12:20:00,
2013-02-26 06:25:00,17.0,15.3,29.98,East,86,0.0,2.0,93,0.00,,,0.00,WeatherCatV1.10B1784,2013-02-26 12:25:00,
2013-02-26 06:30:00,16.9,15.2,29.98,East,85,0.0,1.0,93,0.00,,,0.00,WeatherCatV1.10B1784,2013-02-26 12:30:00,
2013-02-26 06:35:00,16.9,15.5,29.98,East,85,0.0,2.0,94,0.00,,,0.00,WeatherCatV1.10B1784,2013-02-26 12:35:00,
2013-02-26 06:40:00,17.0,15.6,29.98,NNW,327,1.0,5.0,94,0.00,,,0.00,WeatherCatV1.10B1784,2013-02-26 12:40:00,
2013-02-26 06:45:00,17.0,15.6,29.98,NNW,327,0.0,1.0,94,0.00,,,0.00,WeatherCatV1.10B1784,2013-02-26 12:45:00,
2013-02-26 06:50:00,17.1,15.7,29.98,ENE,66,0.0,1.0,94,0.00,,,0.00,WeatherCatV1.10B1784,2013-02-26 12:50:00,
2013-02-26 06:55:00,17.0,15.3,29.98,North,353,0.0,3.0,93,0.00,,,0.00,WeatherCatV1.10B1784,2013-02-26 12:55:00,
2013-02-26 07:00:00,16.8,15.1,29.98,East,81,0.0,3.0,93,0.00,,,0.00,WeatherCatV1.10B1784,2013-02-26 13:00:00,
2013-02-26 07:05:00,16.7,15.3,29.98,ENE,72,1.0,3.0,94,0.00,,,0.00,WeatherCatV1.10B1784,2013-02-26 13:05:00,
2013-02-26 07:10:00,16.7,15.3,29.98,NE,55,4.0,4.0,94,0.00,,,0.00,WeatherCatV1.10B1784,2013-02-26 13:10:00,
2013-02-26 07:15:00,16.7,15.3,29.98,East,83,1.0,4.0,94,0.00,,,0.00,WeatherCatV1.10B1784,2013-02-26 13:15:00,
2013-02-26 07:20:00,16.6,14.9,29.99,East,91,2.0,6.0,93,0.00,,,0.00,WeatherCatV1.10B1784,2013-02-26 13:20:00,
2013-02-26 07:25:00,16.4,14.7,29.99,East,82,0.0,3.0,93,0.00,,,0.00,WeatherCatV1.10B1784,2013-02-26 13:25:00,
2013-02-26 07:30:00,16.3,14.6,29.99,SE,124,1.0,5.0,93,0.00,,,0.00,WeatherCatV1.10B1784,2013-02-26 13:30:00,
2013-02-26 07:35:00,16.3,14.6,29.99,ENE,77,1.0,1.0,93,0.00,,,0.00,WeatherCatV1.10B1784,2013-02-26 13:35:00,
2013-02-26 07:40:00,16.3,14.6,29.99,ENE,76,1.0,5.0,93,0.00,,,0.00,WeatherCatV1.10B1784,2013-02-26 13:40:00,
2013-02-26 07:45:00,16.3,14.6,29.99,East,92,0.0,2.0,93,0.00,,,0.00,WeatherCatV1.10B1784,2013-02-26 13:45:00,
2013-02-26 07:50:00,16.4,14.7,29.99,ENE,76,1.0,2.0,93,0.00,,,0.00,WeatherCatV1.10B1784,2013-02-26 13:50:00,
2013-02-26 07:55:00,16.6,14.9,29.99,ENE,76,1.0,1.0,93,0.00,,,0.00,WeatherCatV1.10B1784,2013-02-26 13:55:00,
2013-02-26 08:00:00,16.8,15.4,29.99,ESE,107,0.0,1.0,94,0.00,,,0.00,WeatherCatV1.10B1784,2013-02-26 14:00:00,
2013-02-26 08:05:00,17.0,15.6,29.99,East,83,2.0,4.0,94,0.00,,,0.00,WeatherCatV1.10B1784,2013-02-26 14:05:00,
2013-02-26 08:10:00,17.1,15.7,29.99,ENE,66,2.0,4.0,94,0.00,,,0.00,WeatherCatV1.10B1784,2013-02-26 14:10:00,
2013-02-26 08:15:00,17.3,15.9,29.99,East,85,1.0,5.0,94,0.00,,,0.00,WeatherCatV1.10B1784,2013-02-26 14:15:00,
2013-02-26 08:20:00,17.5,16.1,29.99,East,90,1.0,6.0,94,0.00,,,0.00,WeatherCatV1.10B1784,2013-02-26 14:20:00,
2013-02-26 08:25:00,17.6,15.9,29.99,East,81,0.0,5.0,93,0.00,,,0.00,WeatherCatV1.10B1784,2013-02-26 14:25:00,
2013-02-26 08:30:00,17.7,16.0,29.99,East,101,1.0,1.0,93,0.00,,,0.00,WeatherCatV1.10B1784,2013-02-26 14:30:00,
2013-02-26 08:35:00,17.8,16.4,29.99,NE,44,6.0,6.0,94,0.00,,,0.00,WeatherCatV1.10B1784,2013-02-26 14:35:00,
2013-02-26 08:40:00,17.9,16.5,29.99,ENE,76,0.0,5.0,94,0.00,,,0.00,WeatherCatV1.10B1784,2013-02-26 14:40:00,
2013-02-26 08:45:00,18.0,16.6,30.00,ESE,120,2.0,3.0,94,0.00,,,0.00,WeatherCatV1.10B1784,2013-02-26 14:45:00,
2013-02-26 08:50:00,18.2,16.8,30.00,ENE,58,0.0,2.0,94,0.00,,,0.00,WeatherCatV1.10B1784,2013-02-26 14:50:00,
2013-02-26 08:55:00,18.4,17.0,30.00,East,88,1.0,5.0,94,0.00,,,0.00,WeatherCatV1.10B1784,2013-02-26 14:55:00,
2013-02-26 09:00:00,18.6,17.2,30.00,East,87,1.0,5.0,94,0.00,,,0.00,WeatherCatV1.10B1784,2013-02-26 15:00:00,
2013-02-26 09:05:00,18.9,17.5,30.00,East,83,0.0,2.0,94,0.00,,,0.00,WeatherCatV1.10B1784,2013-02-26 15:05:00,
2013-02-26 09:10:00,19.2,18.0,30.00,East,83,0.0,1.0,95,0.00,,,0.00,WeatherCatV1.10B1784,2013-02-26 15:10:00,
2013-02-26 09:15:00,19.4,18.0,30.00,ENE,78,0.0,3.0,94,0.00,,,0.00,WeatherCatV1.10B1784,2013-02-26 15:15:00,
2013-02-26 09:20:00,19.7,18.3,30.00,ENE,76,1.0,2.0,94,0.00,,,0.00,WeatherCatV1.10B1784,2013-02-26 15:20:00,
2013-02-26 09:25:00,20.0,18.6,30.00,ENE,76,2.0,2.0,94,0.00,,,0.00,WeatherCatV1.10B1784,2013-02-26 15:25:00,
2013-02-26 09:30:00,20.5,19.3,30.00,East,79,2.0,6.0,95,0.00,,,0.00,WeatherCatV1.10B1784,2013-02-26 15:30:00,
2013-02-26 09:35:00,20.8,19.6,30.01,ENE,76,1.0,2.0,95,0.00,,,0.00,WeatherCatV1.10B1784,2013-02-26 15:35:00,
2013-02-26 09:40:00,21.1,19.6,30.01,ENE,76,0.0,2.0,94,0.00,,,0.00,WeatherCatV1.10B1784,2013-02-26 15:40:00,
2013-02-26 09:45:00,21.3,19.8,30.01,North,355,2.0,2.0,94,0.00,,,0.00,WeatherCatV1.10B1784,2013-02-26 15:45:00,
2013-02-26 09:50:00,21.6,20.1,30.01,NNE,33,4.0,4.0,94,0.00,,,0.00,WeatherCatV1.10B1784,2013-02-26 15:50:00,
2013-02-26 09:55:00,21.6,20.1,30.01,East,85,2.0,5.0,94,0.00,,,0.00,WeatherCatV1.10B1784,2013-02-26 15:55:00,
2013-02-26 10:00:00,21.7,20.2,30.02,ENE,77,0.0,3.0,94,0.00,,,0.00,WeatherCatV1.10B1784,2013-02-26 16:00:00,
2013-02-26 10:05:00,21.9,20.4,30.02,ENE,76,1.0,2.0,94,0.00,,,0.00,WeatherCatV1.10B1784,2013-02-26 16:05:00,
2013-02-26 10:10:00,22.1,20.6,30.02,ESE,103,1.0,3.0,94,0.00,,,0.00,WeatherCatV1.10B1784,2013-02-26 16:10:00,
2013-02-26 10:15:00,22.2,20.7,30.01,East,96,0.0,3.0,94,0.00,,,0.00,WeatherCatV1.10B1784,2013-02-26 16:15:00,
2013-02-26 10:20:00,22.3,20.8,30.01,ENE,61,2.0,3.0,94,0.00,,,0.00,WeatherCatV1.10B1784,2013-02-26 16:20:00,
2013-02-26 10:25:00,22.5,21.0,30.01,ESE,103,2.0,2.0,94,0.00,,,0.00,WeatherCatV1.10B1784,2013-02-26 16:25:00,
2013-02-26 10:30:00,22.7,21.2,30.01,East,96,2.0,3.0,94,0.00,,,0.00,WeatherCatV1.10B1784,2013-02-26 16:30:00,
2013-02-26 10:35:00,22.9,21.7,30.00,East,79,0.0,2.0,95,0.00,,,0.00,WeatherCatV1.10B1784,2013-02-26 16:35:00,
2013-02-26 10:40:00,23.2,22.0,30.00,East,79,3.0,3.0,95,0.00,,,0.00,WeatherCatV1.10B1784,2013-02-26 16:40:00,
2013-02-26 10:45:00,23.4,21.9,30.00,NE,41,1.0,1.0,94,0.00,,,0.00,WeatherCatV1.10B1784,2013-02-26 16:45:00,
2013-02-26 10:50:00,23.7,22.2,30.00,NE,40,0.0,1.0,94,0.00,,,0.00,WeatherCatV1.10B1784,2013-02-26 16:50:00,
2013-02-26 10:55:00,23.9,22.4,30.00,ENE,68,1.0,3.0,94,0.00,,,0.00,WeatherCatV1.10B1784,2013-02-26 16:55:00,
2013-02-26 11:00:00,24.1,22.6,30.00,East,99,0.0,2.0,94,0.00,,,0.00,WeatherCatV1.10B1784,2013-02-26 17:00:00,
2013-02-26 11:05:00,24.2,22.5,30.00,East,89,1.0,1.0,93,0.00,,,0.00,WeatherCatV1.10B1784,2013-02-26 17:05:00,
2013-02-26 11:10:00,24.2,22.5,30.00,East,81,0.0,1.0,93,0.00,,,0.00,WeatherCatV1.10B1784,2013-02-26 17:10:00,
2013-02-26 11:15:00,24.3,22.6,30.01,East,81,1.0,4.0,93,0.00,,,0.00,WeatherCatV1.10B1784,2013-02-26 17:15:00,
2013-02-26 11:20:00,24.5,22.8,30.00,NNE,24,0.0,4.0,93,0.00,,,0.00,WeatherCatV1.10B1784,2013-02-26 17:20:00,
2013-02-26 11:25:00,24.7,23.0,30.00,ENE,78,0.0,3.0,93,0.00,,,0.00,WeatherCatV1.10B1784,2013-02-26 17:25:00,
2013-02-26 11:30:00,24.8,23.1,30.00,ESE,109,0.0,1.0,93,0.00,,,0.00,WeatherCatV1.10B1784,2013-02-26 17:30:00,
2013-02-26 11:35:00,25.0,23.3,30.00,ESE,108,1.0,3.0,93,0.00,,,0.00,WeatherCatV1.10B1784,2013-02-26 17:35:00,
2013-02-26 11:40:00,25.2,23.5,30.00,East,99,0.0,2.0,93,0.00,,,0.00,WeatherCatV1.10B1784,2013-02-26 17:40:00,
2013-02-26 11:45:00,25.5,23.8,30.00,East,99,0.0,2.0,93,0.00,,,0.00,WeatherCatV1.10B1784,2013-02-26 17:45:00,
2013-02-26 11:50:00,25.9,24.2,30.00,East,99,1.0,2.0,93,0.00,,,0.00,WeatherCatV1.10B1784,2013-02-26 17:50:00,
2013-02-26 11:55:00,26.3,24.6,30.00,East,99,0.0,1.0,93,0.00,,,0.00,WeatherCatV1.10B1784,2013-02-26 17:55:00,
2013-02-26 12:00:00,26.4,24.4,29.99,NNW,331,2.0,4.0,92,0.00,,,0.00,WeatherCatV1.10B1784,2013-02-26 18:00:00,
2013-02-26 12:05:00,26.5,24.5,29.99,NNE,20,0.0,3.0,92,0.00,,,0.00,WeatherCatV1.10B1784,2013-02-26 18:05:00,
2013-02-26 12:10:00,26.8,24.8,29.99,NE,55,0.0,2.0,92,0.00,,,0.00,WeatherCatV1.10B1784,2013-02-26 18:10:00,
2013-02-26 12:15:00,27.0,25.0,29.99,North,353,0.0,4.0,92,0.00,,,0.00,WeatherCatV1.10B1784,2013-02-26 18:15:00,
2013-02-26 12:20:00,27.4,25.4,29.99,North,355,0.0,1.0,92,0.00,,,0.00,WeatherCatV1.10B1784,2013-02-26 18:20:00,
2013-02-26 12:25:00,27.5,25.2,29.98,NNW,329,1.0,3.0,91,0.00,,,0.00,WeatherCatV1.10B1784,2013-02-26 18:25:00,
2013-02-26 12:30:00,27.4,24.9,29.98,NW,323,2.0,2.0,90,0.00,,,0.00,WeatherCatV1.10B1784,2013-02-26 18:30:00,
2013-02-26 12:35:00,27.6,25.3,29.98,NNW,345,0.0,2.0,91,0.00,,,0.00,WeatherCatV1.10B1784,2013-02-26 18:35:00,
2013-02-26 12:40:00,27.8,25.3,29.98,NE,36,2.0,5.0,90,0.00,,,0.00,WeatherCatV1.10B1784,2013-02-26 18:40:00,
2013-02-26 12:45:00,28.0,25.5,29.98,East,92,0.0,3.0,90,0.00,,,0.00,WeatherCatV1.10B1784,2013-02-26 18:45:00,
2013-02-26 12:50:00,28.3,26.0,29.97,East,92,0.0,3.0,91,0.00,,,0.00,WeatherCatV1.10B1784,2013-02-26 18:50:00,
2013-02-26 12:55:00,28.5,25.9,29.97,East,89,3.0,5.0,90,0.00,,,0.00,WeatherCatV1.10B1784,2013-02-26 18:55:00,
2013-02-26 13:00:00,28.6,26.0,29.97,ENE,71,0.0,3.0,90,0.00,,,0.00,WeatherCatV1.10B1784,2013-02-26 19:00:00,
2013-02-26 13:05:00,28.7,25.9,29.97,ENE,58,2.0,5.0,89,0.00,,,0.00,WeatherCatV1.10B1784,2013-02-26 19:05:00,
2013-02-26 13:10:00,28.8,26.0,29.97,North,355,0.0,4.0,89,0.00,,,0.00,WeatherCatV1.10B1784,2013-02-26 19:10:00,
2013-02-26 13:15:00,29.0,26.2,29.97,NW,322,0.0,3.0,89,0.00,,,0.00,WeatherCatV1.10B1784,2013-02-26 19:15:00,
2013-02-26 13:20:00,29.0,26.2,29.96,NW,324,1.0,2.0,89,0.00,,,0.00,WeatherCatV1.10B1784,2013-02-26 19:20:00,
2013-02-26 13:25:00,29.3,26.5,29.96,NNW,328,1.0,1.0,89,0.00,,,0.00,WeatherCatV1.10B1784,2013-02-26 19:25:00,
2013-02-26 13:30:00,29.4,26.3,29.96,NNW,334,1.0,1.0,88,0.00,,,0.00,WeatherCatV1.10B1784,2013-02-26 19:30:00,
2013-02-26 13:35:00,29.3,26.2,29.96,NW,323,0.0,4.0,88,0.00,,,0.00,WeatherCatV1.10B1784,2013-02-26 19:35:00,
2013-02-26 13:40:00,29.3,26.5,29.96,NNW,330,0.0,3.0,89,0.00,,,0.00,WeatherCatV1.10B1784,2013-02-26 19:40:00,
2013-02-26 13:45:00,29.5,26.7,29.95,North,0,0.0,2.0,89,0.00,,,0.00,WeatherCatV1.10B1784,2013-02-26 19:45:00,
2013-02-26 13:50:00,30.0,26.9,29.95,North,349,0.0,1.0,88,0.00,,,0.00,WeatherCatV1.10B1784,2013-02-26 19:50:00,
2013-02-26 13:55:00,30.2,26.8,29.95,NNW,336,1.0,3.0,87,0.00,,,0.00,WeatherCatV1.10B1784,2013-02-26 19:55:00,
2013-02-26 14:00:00,30.4,27.0,29.95,NW,325,0.0,3.0,87,0.00,,,0.00,WeatherCatV1.10B1784,2013-02-26 20:00:00,
2013-02-26 14:05:00,30.5,26.8,29.94,North,350,0.0,2.0,86,0.00,,,0.00,WeatherCatV1.10B1784,2013-02-26 20:05:00,
2013-02-26 14:10:00,30.6,26.9,29.94,NNW,333,0.0,5.0,86,0.00,,,0.00,WeatherCatV1.10B1784,2013-02-26 20:10:00,
2013-02-26 14:15:00,31.1,27.7,29.94,North,10,0.0,2.0,87,0.00,,,0.00,WeatherCatV1.10B1784,2013-02-26 20:15:00,
2013-02-26 14:20:00,31.7,27.7,29.94,NNE,24,1.0,2.0,85,0.00,,,0.00,WeatherCatV1.10B1784,2013-02-26 20:20:00,
2013-02-26 14:25:00,31.9,27.3,29.93,NE,34,3.0,3.0,83,0.00,,,0.00,WeatherCatV1.10B1784,2013-02-26 20:25:00,
2013-02-26 14:30:00,32.0,27.4,29.93,NNW,338,2.0,5.0,83,0.00,,,0.00,WeatherCatV1.10B1784,2013-02-26 20:30:00,
2013-02-26 14:35:00,31.7,27.4,29.93,NE,51,0.0,4.0,84,0.00,,,0.00,WeatherCatV1.10B1784,2013-02-26 20:35:00,
2013-02-26 14:40:00,31.4,26.8,29.93,NW,306,2.0,6.0,83,0.00,,,0.00,WeatherCatV1.10B1784,2013-02-26 20:40:00,
2013-02-26 14:45:00,31.3,27.0,29.93,NNE,29,0.0,2.0,84,0.00,,,0.00,WeatherCatV1.10B1784,2013-02-26 20:45:00,
2013-02-26 14:50:00,31.6,27.3,29.93,NE,54,1.0,2.0,84,0.00,,,0.00,WeatherCatV1.10B1784,2013-02-26 20:50:00,
2013-02-26 14:55:00,31.9,27.3,29.93,NNW,338,2.0,6.0,83,0.00,,,0.00,WeatherCatV1.10B1784,2013-02-26 20:55:00,
2013-02-26 15:00:00,31.6,27.0,29.93,NW,311,0.0,5.0,83,0.00,,,0.00,WeatherCatV1.10B1784,2013-02-26 21:00:00,
2013-02-26 15:05:00,31.6,27.0,29.93,NNW,335,0.0,6.0,83,0.00,,,0.00,WeatherCatV1.10B1784,2013-02-26 21:05:00,
2013-02-26 15:10:00,31.7,26.8,29.93,ENE,66,1.0,2.0,82,0.00,,,0.00,WeatherCatV1.10B1784,2013-02-26 21:10:00,
2013-02-26 15:15:00,31.9,26.7,29.93,WNW,299,1.0,5.0,81,0.00,,,0.00,WeatherCatV1.10B1784,2013-02-26 21:15:00,
2013-02-26 15:20:00,32.0,26.5,29.93,NW,325,1.0,5.0,80,0.00,,,0.00,WeatherCatV1.10B1784,2013-02-26 21:20:00,
2013-02-26 15:25:00,32.0,26.5,29.93,NE,53,1.0,3.0,80,0.00,,,0.00,WeatherCatV1.10B1784,2013-02-26 21:25:00,
2013-02-26 15:30:00,32.2,26.7,29.93,NW,322,2.0,5.0,80,0.00,,,0.00,WeatherCatV1.10B1784,2013-02-26 21:30:00,
2013-02-26 15:35:00,32.1,26.3,29.94,NNW,346,3.0,4.0,79,0.00,,,0.00,WeatherCatV1.10B1784,2013-02-26 21:35:00,
2013-02-26 15:40:00,32.0,26.5,29.94,NNW,327,1.0,1.0,80,0.00,,,0.00,WeatherCatV1.10B1784,2013-02-26 21:40:00,
2013-02-26 15:45:00,32.0,26.5,29.94,ENE,62,2.0,4.0,80,0.00,,,0.00,WeatherCatV1.10B1784,2013-02-26 21:45:00,
2013-02-26 15:50:00,31.7,26.2,29.94,NW,320,2.0,6.0,80,0.00,,,0.00,WeatherCatV1.10B1784,2013-02-26 21:50:00,
2013-02-26 15:55:00,31.4,26.0,29.95,North,0,1.0,5.0,80,0.00,,,0.00,WeatherCatV1.10B1784,2013-02-26 21:55:00,
2013-02-26 16:00:00,31.3,25.9,29.95,North,0,3.0,6.0,80,0.00,,,0.00,WeatherCatV1.10B1784,2013-02-26 22:00:00,
2013-02-26 16:05:00,31.0,25.9,29.95,NE,50,0.0,4.0,81,0.00,,,0.00,WeatherCatV1.10B1784,2013-02-26 22:05:00,
2013-02-26 16:10:00,30.9,25.8,29.95,ENE,61,3.0,4.0,81,0.00,,,0.00,WeatherCatV1.10B1784,2013-02-26 22:10:00,
2013-02-26 16:15:00,30.5,25.7,29.95,NNW,327,0.0,6.0,82,0.00,,,0.00,WeatherCatV1.10B1784,2013-02-26 22:15:00,
2013-02-26 16:20:00,30.1,25.6,29.95,NNW,344,1.0,6.0,83,0.00,,,0.00,WeatherCatV1.10B1784,2013-02-26 22:20:00,
2013-02-26 16:25:00,29.8,25.3,29.95,NNW,346,1.0,2.0,83,0.00,,,0.00,WeatherCatV1.10B1784,2013-02-26 22:25:00,
2013-02-26 16:30:00,29.6,24.8,29.96,NE,56,2.0,5.0,82,0.00,,,0.00,WeatherCatV1.10B1784,2013-02-26 22:30:00,
2013-02-26 16:35:00,29.4,24.6,29.96,North,351,2.0,7.0,82,0.00,,,0.00,WeatherCatV1.10B1784,2013-02-26 22:35:00,
2013-02-26 16:40:00,29.1,24.6,29.95,NW,326,0.0,3.0,83,0.00,,,0.00,WeatherCatV1.10B1784,2013-02-26 22:40:00,
2013-02-26 16:45:00,29.0,24.8,29.95,NNE,21,0.0,4.0,84,0.00,,,0.00,WeatherCatV1.10B1784,2013-02-26 22:45:00,
2013-02-26 16:50:00,28.8,24.6,29.95,NE,51,1.0,3.0,84,0.00,,,0.00,WeatherCatV1.10B1784,2013-02-26 22:50:00,
2013-02-26 16:55:00,28.8,24.9,29.95,NE,49,0.0,2.0,85,0.00,,,0.00,WeatherCatV1.10B1784,2013-02-26 22:55:00,
2013-02-26 17:00:00,28.7,24.8,29.96,NNW,331,0.0,4.0,85,0.00,,,0.00,WeatherCatV1.10B1784,2013-02-26 23:00:00,
2013-02-26 17:05:00,28.7,25.1,29.96,NW,326,3.0,4.0,86,0.00,,,0.00,WeatherCatV1.10B1784,2013-02-26 23:05:00,
2013-02-26 17:10:00,28.5,24.6,29.96,North,355,3.0,5.0,85,0.00,,,0.00,WeatherCatV1.10B1784,2013-02-26 23:10:00,
2013-02-26 17:15:00,28.3,24.7,29.96,North,351,0.0,2.0,86,0.00,,,0.00,WeatherCatV1.10B1784,2013-02-26 23:15:00,
2013-02-26 17:20:00,28.2,24.6,29.96,NNW,336,1.0,3.0,86,0.00,,,0.00,WeatherCatV1.10B1784,2013-02-26 23:20:00,
2013-02-26 17:25:00,28.1,24.5,29.96,WNW,298,3.0,3.0,86,0.00,,,0.00,WeatherCatV1.10B1784,2013-02-26 23:25:00,
2013-02-26 17:30:00,28.0,24.4,29.96,WNW,303,0.0,5.0,86,0.00,,,0.00,WeatherCatV1.10B1784,2013-02-26 23:30:00,
2013-02-26 17:35:00,27.9,24.3,29.96,North,10,1.0,4.0,86,0.00,,,0.00,WeatherCatV1.10B1784,2013-02-26 23:35:00,
2013-02-26 17:40:00,27.9,24.3,29.96,North,10,2.0,5.0,86,0.00,,,0.00,WeatherCatV1.10B1784,2013-02-26 23:40:00,
2013-02-26 17:45:00,27.8,24.4,29.97,NNW,332,3.0,4.0,87,0.00,,,0.00,WeatherCatV1.10B1784,2013-02-26 23:45:00,
2013-02-26 17:50:00,27.7,24.3,29.97,WNW,296,1.0,4.0,87,0.00,,,0.00,WeatherCatV1.10B1784,2013-02-26 23:50:00,
2013-02-26 17:55:00,27.6,24.2,29.97,NW,304,2.0,5.0,87,0.00,,,0.00,WeatherCatV1.10B1784,2013-02-26 23:55:00,
2013-02-26 18:00:00,27.3,24.0,29.97,NNW,328,2.0,6.0,87,0.00,,,0.00,WeatherCatV1.10B1784,2013-02-27 00:00:00,
2013-02-26 18:05:00,27.1,23.8,29.98,NNW,330,0.0,5.0,87,0.00,,,0.00,WeatherCatV1.10B1784,2013-02-27 00:05:00,
2013-02-26 18:10:00,26.9,23.8,29.98,NW,316,2.0,8.0,88,0.00,,,0.00,WeatherCatV1.10B1784,2013-02-27 00:10:00,
2013-02-26 18:15:00,26.6,23.5,29.98,North,0,5.0,5.0,88,0.00,,,0.00,WeatherCatV1.10B1784,2013-02-27 00:15:00,
2013-02-26 18:20:00,26.5,23.4,29.98,WNW,296,4.0,5.0,88,0.00,,,0.00,WeatherCatV1.10B1784,2013-02-27 00:20:00,
2013-02-26 18:25:00,26.2,23.1,29.98,NNW,345,1.0,5.0,88,0.00,,,0.00,WeatherCatV1.10B1784,2013-02-27 00:25:00,
2013-02-26 18:30:00,26.0,22.9,29.99,NW,316,5.0,7.0,88,0.00,,,0.00,WeatherCatV1.10B1784,2013-02-27 00:30:00,
2013-02-26 18:35:00,25.8,22.7,29.99,WNW,286,5.0,7.0,88,0.00,,,0.00,WeatherCatV1.10B1784,2013-02-27 00:35:00,
2013-02-26 18:40:00,25.6,22.8,29.99,NW,309,7.0,7.0,89,0.00,,,0.00,WeatherCatV1.10B1784,2013-02-27 00:40:00,
2013-02-26 18:45:00,25.4,22.4,29.99,NW,312,5.0,5.0,88,0.00,,,0.00,WeatherCatV1.10B1784,2013-02-27 00:45:00,
2013-02-26 18:50:00,25.3,22.5,29.99,NW,326,1.0,8.0,89,0.00,,,0.00,WeatherCatV1.10B1784,2013-02-27 00:50:00,
2013-02-26 18:55:00,25.3,22.5,30.00,NW,307,2.0,7.0,89,0.00,,,0.00,WeatherCatV1.10B1784,2013-02-27 00:55:00,
2013-02-26 19:00:00,25.2,22.4,30.00,NW,311,1.0,3.0,89,0.00,,,0.00,WeatherCatV1.10B1784,2013-02-27 01:00:00,
2013-02-26 19:05:00,25.2,22.4,30.00,NNW,333,2.0,3.0,89,0.00,,,0.00,WeatherCatV1.10B1784,2013-02-27 01:05:00,
2013-02-26 19:10:00,25.2,22.7,30.00,North,5,1.0,3.0,90,0.00,,,0.00,WeatherCatV1.10B1784,2013-02-27 01:10:00,
2013-02-26 19:15:00,25.2,22.7,30.00,North,349,4.0,7.0,90,0.00,,,0.00,WeatherCatV1.10B1784,2013-02-27 01:15:00,
2013-02-26 19:20:00,25.2,22.4,30.00,NW,307,2.0,5.0,89,0.00,,,0.00,WeatherCatV1.10B1784,2013-02-27 01:20:00,
2013-02-26 19:25:00,25.1,22.6,30.01,NNW,346,4.0,7.0,90,0.00,,,0.00,WeatherCatV1.10B1784,2013-02-27 01:25:00,
2013-02-26 19:30:00,25.0,22.5,30.01,NNW,348,2.0,4.0,90,0.00,,,0.00,WeatherCatV1.10B1784,2013-02-27 01:30:00,
2013-02-26 19:35:00,24.8,22.3,30.00,NW,305,3.0,6.0,90,0.00,,,0.00,WeatherCatV1.10B1784,2013-02-27 01:35:00,
2013-02-26 19:40:00,24.7,22.2,30.01,NNW,341,5.0,10.0,90,0.00,,,0.00,WeatherCatV1.10B1784,2013-02-27 01:40:00,
2013-02-26 19:45:00,24.7,22.2,30.01,NW,325,3.0,4.0,90,0.00,,,0.00,WeatherCatV1.10B1784,2013-02-27 01:45:00,
2013-02-26 19:50:00,24.7,22.2,30.01,NW,307,5.0,6.0,90,0.00,,,0.00,WeatherCatV1.10B1784,2013-02-27 01:50:00,
2013-02-26 19:55:00,24.6,22.1,30.01,WNW,301,3.0,4.0,90,0.00,,,0.00,WeatherCatV1.10B1784,2013-02-27 01:55:00,
2013-02-26 20:00:00,24.6,22.1,30.01,NNW,328,3.0,6.0,90,0.00,,,0.00,WeatherCatV1.10B1784,2013-02-27 02:00:00,
2013-02-26 20:05:00,24.5,22.0,30.01,NNW,333,2.0,6.0,90,0.00,,,0.00,WeatherCatV1.10B1784,2013-02-27 02:05:00,
2013-02-26 20:10:00,24.5,22.3,30.01,NNW,330,0.0,5.0,91,0.00,,,0.00,WeatherCatV1.10B1784,2013-02-27 02:10:00,
2013-02-26 20:15:00,24.5,22.3,30.01,WNW,298,5.0,6.0,91,0.00,,,0.00,WeatherCatV1.10B1784,2013-02-27 02:15:00,
2013-02-26 20:20:00,24.5,22.3,30.01,NW,324,2.0,5.0,91,0.00,,,0.00,WeatherCatV1.10B1784,2013-02-27 02:20:00,
2013-02-26 20:25:00,24.5,22.3,30.01,WNW,291,0.0,6.0,91,0.00,,,0.00,WeatherCatV1.10B1784,2013-02-27 02:25:00,
2013-02-26 20:30:00,24.6,22.4,30.01,North,10,0.0,7.0,91,0.00,,,0.00,WeatherCatV1.10B1784,2013-02-27 02:30:00,
2013-02-26 20:35:00,24.6,22.4,30.01,NNW,336,0.0,3.0,91,0.00,,,0.00,WeatherCatV1.10B1784,2013-02-27 02:35:00,
2013-02-26 20:40:00,24.6,22.4,30.01,ENE,59,0.0,3.0,91,0.00,,,0.00,WeatherCatV1.10B1784,2013-02-27 02:40:00,
2013-02-26 20:45:00,24.6,22.1,30.01,ENE,68,0.0,3.0,90,0.00,,,0.00,WeatherCatV1.10B1784,2013-02-27 02:45:00,
2013-02-26 20:50:00,24.6,22.1,30.01,NW,316,1.0,6.0,90,0.00,,,0.00,WeatherCatV1.10B1784,2013-02-27 02:50:00,
2013-02-26 20:55:00,24.6,22.1,30.01,NW,313,2.0,6.0,90,0.00,,,0.00,WeatherCatV1.10B1784,2013-02-27 02:55:00,
2013-02-26 21:00:00,24.5,22.0,30.01,NNW,338,1.0,6.0,90,0.00,,,0.00,WeatherCatV1.10B1784,2013-02-27 03:00:00,
2013-02-26 21:05:00,24.5,22.0,30.01,NW,321,4.0,5.0,90,0.00,,,0.00,WeatherCatV1.10B1784,2013-02-27 03:05:00,
2013-02-26 21:10:00,24.5,22.0,30.01,North,0,1.0,7.0,90,0.00,,,0.00,WeatherCatV1.10B1784,2013-02-27 03:10:00,
2013-02-26 21:15:00,24.4,21.9,30.01,North,0,1.0,5.0,90,0.00,,,0.00,WeatherCatV1.10B1784,2013-02-27 03:15:00,
2013-02-26 21:20:00,24.4,21.9,30.01,NNW,342,0.0,6.0,90,0.00,,,0.00,WeatherCatV1.10B1784,2013-02-27 03:20:00,
2013-02-26 21:25:00,24.4,21.9,30.00,NW,316,2.0,9.0,90,0.00,,,0.00,WeatherCatV1.10B1784,2013-02-27 03:25:00,
2013-02-26 21:30:00,24.4,21.9,30.01,NW,311,2.0,6.0,90,0.00,,,0.00,WeatherCatV1.10B1784,2013-02-27 03:30:00,
2013-02-26 21:35:00,24.4,21.9,30.01,NW,312,0.0,5.0,90,0.00,,,0.00,WeatherCatV1.10B1784,2013-02-27 03:35:00,
2013-02-26 21:40:00,24.3,21.8,30.01,NW,320,1.0,5.0,90,0.00,,,0.00,WeatherCatV1.10B1784,2013-02-27 03:40:00,
2013-02-26 21:45:00,24.3,21.8,30.01,NNW,329,3.0,7.0,90,0.00,,,0.00,WeatherCatV1.10B1784,2013-02-27 03:45:00,
2013-02-26 21:50:00,24.3,21.8,30.01,NNW,346,0.0,4.0,90,0.00,,,0.00,WeatherCatV1.10B1784,2013-02-27 03:50:00,
2013-02-26 21:55:00,24.3,21.8,30.01,NW,311,4.0,4.0,90,0.00,,,0.00,WeatherCatV1.10B1784,2013-02-27 03:55:00,
2013-02-26 22:00:00,24.3,21.8,30.01,NNW,339,1.0,4.0,90,0.00,,,0.00,WeatherCatV1.10B1784,2013-02-27 04:00:00,
2013-02-26 22:05:00,24.2,21.7,30.01,NW,305,3.0,4.0,90,0.00,,,0.00,WeatherCatV1.10B1784,2013-02-27 04:05:00,
2013-02-26 22:10:00,24.2,22.0,30.01,NNW,335,2.0,5.0,91,0.00,,,0.00,WeatherCatV1.10B1784,2013-02-27 04:10:00,
2013-02-26 22:15:00,24.2,22.0,30.01,WNW,299,6.0,6.0,91,0.00,,,0.00,WeatherCatV1.10B1784,2013-02-27 04:15:00,
2013-02-26 22:20:00,24.1,21.9,30.01,NW,311,3.0,5.0,91,0.00,,,0.00,WeatherCatV1.10B1784,2013-02-27 04:20:00,
2013-02-26 22:25:00,24.1,21.9,30.01,North,351,5.0,5.0,91,0.00,,,0.00,WeatherCatV1.10B1784,2013-02-27 04:25:00,
2013-02-26 22:30:00,24.1,21.9,30.01,NNW,327,4.0,6.0,91,0.00,,,0.00,WeatherCatV1.10B1784,2013-02-27 04:30:00,
2013-02-26 22:35:00,24.0,21.8,30.01,North,0,2.0,4.0,91,0.00,,,0.00,WeatherCatV1.10B1784,2013-02-27 04:35:00,
2013-02-26 22:40:00,24.0,21.8,30.01,WNW,284,3.0,7.0,91,0.00,,,0.00,WeatherCatV1.10B1784,2013-02-27 04:40:00,
2013-02-26 22:45:00,24.0,21.8,30.01,NW,309,2.0,4.0,91,0.00,,,0.00,WeatherCatV1.10B1784,2013-02-27 04:45:00,
2013-02-26 22:50:00,24.0,21.8,30.01,NW,305,4.0,6.0,91,0.00,,,0.00,WeatherCatV1.10B1784,2013-02-27 04:50:00,
2013-02-26 22:55:00,24.0,21.8,30.01,NE,48,4.0,4.0,91,0.00,,,0.00,WeatherCatV1.10B1784,2013-02-27 04:55:00,
2013-02-26 23:00:00,23.9,21.7,30.01,NW,304,3.0,5.0,91,0.00,,,0.00,WeatherCatV1.10B1784,2013-02-27 05:00:00,
2013-02-26 23:05:00,23.9,21.7,30.01,North,0,3.0,6.0,91,0.00,,,0.00,WeatherCatV1.10B1784,2013-02-27 05:05:00,
2013-02-26 23:10:00,23.8,21.8,30.01,NW,311,5.0,6.0,92,0.00,,,0.00,WeatherCatV1.10B1784,2013-02-27 05:10:00,
2013-02-26 23:15:00,23.8,21.8,30.01,NW,305,5.0,6.0,92,0.00,,,0.00,WeatherCatV1.10B1784,2013-02-27 05:15:00,
2013-02-26 23:20:00,23.7,21.7,30.01,NNE,19,5.0,7.0,92,0.00,,,0.00,WeatherCatV1.10B1784,2013-02-27 05:20:00,
2013-02-26 23:25:00,23.7,21.7,30.01,NW,311,1.0,3.0,92,0.00,,,0.00,WeatherCatV1.10B1784,2013-02-27 05:25:00,
2013-02-26 23:30:00,23.6,21.6,30.01,WNW,301,4.0,5.0,92,0.00,,,0.00,WeatherCatV1.10B1784,2013-02-27 05:30:00,
2013-02-26 23:35:00,23.5,21.3,30.01,WNW,303,1.0,5.0,91,0.00,,,0.00,WeatherCatV1.10B1784,2013-02-27 05:35:00,
2013-02-26 23:40:00,23.4,21.2,30.01,WNW,295,0.0,4.0,91,0.00,,,0.00,WeatherCatV1.10B1784,2013-02-27 05:40:00,
2013-02-26 23:45:00,23.4,21.4,30.02,NW,307,2.0,3.0,92,0.00,,,0.00,WeatherCatV1.10B1784,2013-02-27 05:45:00,
2013-02-26 23:50:00,23.4,21.4,30.02,NW,314,2.0,4.0,92,0.00,,,0.00,WeatherCatV1.10B1784,2013-02-27 05:50:00,
2013-02-26 23:55:00,23.4,21.2,30.02,NW,320,4.0,7.0,91,0.00,,,0.00,WeatherCatV1.10B1784,2013-02-27 05:55:00,